Time,TemperatureF,DewpointF,PressureIn,WindDirection,WindDirectionDegrees,WindSpeedMPH,WindSpeedGustMPH,Humidity,HourlyPrecipIn,Conditions,Clouds,dailyrainin,SoftwareType,DateUTC
2013-06-28 00:11:00,69.0,54.0,-100.00,North,5,1.0,3.0,58,-99.99,,,-99.99,,2013-06-28 07:11:00,
2013-06-28 03:11:00,62.0,56.0,-100.00,SSW,195,0.0,2.0,80,-99.99,,,-99.99,,2013-06-28 10:11:00,
2013-06-28 05:12:00,59.0,55.0,-100.00,WNW,290,1.0,1.0,86,-99.99,,,-99.99,,2013-06-28 12:12:00,
2013-06-28 06:11:00,59.0,56.0,-100.00,North,5,0.0,2.0,89,-99.99,,,-99.99,,2013-06-28 13:11:00,
2013-06-28 07:11:00,61.0,56.0,-100.00,NE,45,2.0,3.0,83,-99.99,,,-99.99,,2013-06-28 14:11:00,
2013-06-28 08:11:00,66.0,56.0,-100.00,ENE,75,2.0,7.0,70,-99.99,,,-99.99,,2013-06-28 15:11:00,
2013-06-28 09:11:00,71.0,55.0,-100.00,ENE,75,3.0,8.0,56,-99.99,,,-99.99,,2013-06-28 16:11:00,
2013-06-28 10:11:00,73.0,56.0,-100.00,ENE,70,5.0,6.0,55,-99.99,,,-99.99,,2013-06-28 17:11:00,
2013-06-28 11:11:00,76.0,57.0,-100.00,ENE,65,3.0,7.0,51,-99.99,,,-99.99,,2013-06-28 18:11:00,
2013-06-28 12:11:00,82.0,58.0,-100.00,West,260,1.0,6.0,44,-99.99,,,-99.99,,2013-06-28 19:11:00,
2013-06-28 13:11:00,84.0,57.0,-100.00,NE,55,2.0,7.0,39,-99.99,,,-99.99,,2013-06-28 20:11:00,
2013-06-28 14:11:00,87.0,58.0,-100.00,North,360,2.0,10.0,37,-99.99,,,-99.99,,2013-06-28 21:11:00,
2013-06-28 15:01:00,91.0,57.0,-100.00,West,275,1.0,6.0,31,-99.99,,,-99.99,,2013-06-28 22:01:00,
2013-06-28 15:11:00,91.0,57.0,-100.00,West,275,1.0,6.0,31,-99.99,,,-99.99,,2013-06-28 22:11:00,
2013-06-28 16:11:00,90.0,56.0,-100.00,South,170,1.0,7.0,31,-99.99,,,-99.99,,2013-06-28 23:11:00,
2013-06-28 17:02:00,90.0,56.0,-100.00,East,80,2.0,6.0,31,-99.99,,,-99.99,,2013-06-29 00:02:00,
2013-06-28 17:11:00,90.0,56.0,-100.00,East,80,2.0,6.0,31,-99.99,,,-99.99,,2013-06-29 00:11:00,
2013-06-28 18:11:00,88.0,56.0,-100.00,NE,55,5.0,9.0,33,-99.99,,,-99.99,,2013-06-29 01:11:00,
2013-06-28 19:10:00,88.0,55.0,-100.00,NNE,30,3.0,7.0,32,-99.99,,,-99.99,,2013-06-29 02:10:00,
2013-06-28 20:11:00,87.0,55.0,-100.00,NE,35,5.0,9.0,33,-99.99,,,-99.99,,2013-06-29 03:11:00,
2013-06-28 21:01:00,84.0,54.0,-100.00,NNE,30,2.0,6.0,35,-99.99,,,-99.99,,2013-06-29 04:01:00,
2013-06-28 21:11:00,84.0,54.0,-100.00,NNE,30,2.0,6.0,35,-99.99,,,-99.99,,2013-06-29 04:11:00,
2013-06-28 22:10:00,79.0,55.0,-100.00,West,260,1.0,1.0,43,-99.99,,,-99.99,,2013-06-29 05:10:00,